カタログに戻る

STARLINK-3948

運用中通信VLEO
NORAD 52546·PAYLOAD·🇺🇸 United States

打ち上げ May 13, 2022 から Vandenberg Space Force Base

Loading…

次のパス (今後24時間)

TLE

最新Source: CelesTrak SupGP

元期: Sep 15, 2026, 01:55 UTC

1 52546C 22051P   26258.08034722  .00046832  00000+0  13835-2 0  2583
2 52546  53.1587 343.0869 0001209  91.8276 289.8021 15.34370119    16

AllMySatでSTARLINK-3948をリアルタイム追跡

Download on the App Store